Weather in Kirishi

Russia / Saint-Petersburg and Leningrad Oblast     59°26′58″N   32°00′31″E
temp.,
°C
wind,
m/s
gust,
m/s
humid.,
%
clouds,
%
prec.,
mm/h
press.,
hPa
HPBL,
m
17 may, mon
mon1700:00+11nnw11915 0.0 101210
03:00+10ese11925 0.0 101313
06:00+11ese24935 0.0 101398
09:00+17ese2475100 0.0 1013406
12:00+22se4652100 0.0 10121367
15:00+23se4745100 0.0 10112058
18:00+21ese3957100 0.0 1009422
21:00+19ese41365100 0.0 1008567
18 may, tue
tue1800:00+17ese41482100 0.1 1007562
03:00+17ese41389100 0.2 1006497
06:00+17ese4129218 0.0 1005442
09:00+21se51069100 0.0 1005742
12:00+25sse5956100 0.0 10041430
15:00+28sse594469 0.0 10042663
18:00+26sse4115099 0.1 10022114
21:00+18ssw2792100 4.9 1005176
19 may, wed
wed1900:00+16ese2597100 1.1 100596
03:00+15ese2109574 1.6 1004239
06:00+15se31292100 0.1 1004410
09:00+20sse4117741 0.1 1005876
12:00+22s5136483 0.5 10051855
15:00+17sse4118898 1.6 1005650
18:00+20ssw497880 0.7 1005936
21:00+16sse3119171 1.9 1006351
20 may, thu
thu2000:00+14s389711 0.0 1006208
03:00+13sw129950 0.0 100761
06:00+13nw1296100 0.0 1008123
09:00+15ne1289100 0.0 1009365
12:00+19nne357397 0.0 1008769
15:00+20nne4569100 0.3 1006688
18:00+16n51194100 4.3 1003399
21:00+13ne3699100 14.4 1001160
21 may, fri
fri2100:00+15sse411945 2.0 1001641
03:00+12se311970 2.0 1001350
06:00+13se41196100 0.0 1000748
09:00+14sse598690 0.3 10001085
12:00+13sse41075100 0.1 10011057
15:00+15ssw466491 0.1 10001017
18:00+14ssw3672100 0.0 999811
21:00+11ssw278498 0.0 999510